Home > Weather > Peine > Past weeks

Flag for Germany Past Weather in Peine, Lower Saxony, Germany — Yesterday and Last 2 Weeks

Now
48 °F

Partly sunny.


Feels Like: 48 °F
Forecast: 49 / 69 °F
Wind: 2 mph from Southwest

Location: Celle Airport

Current Time: May 26, 2016 at 6:52:57 AM

Latest Report: May 26, 2016 at 6:20 AM


Visibility: 4 mi

Pressure: 30.01 "Hg

Humidity: 94%

Dew Point: 46 °F

Location of PeineLocation

Past Weather in Peine — Graph

°F

Peine Temperature Yesterday

Maximum temperature yesterday: 57 °F (at 5:20 PM)
Minimum temperature yesterday: 50 °F (at 4:20 AM)
Average temperature yesterday: 53 °F

High & Low Weather Summary for the Past Weeks

 TemperatureHumidityPressure
High82 °F (May 22, 2:20 PM)100% (May 20, 11:20 PM)30.04 "Hg (May 20, 11:20 PM)
Low39 °F (May 15, 11:20 AM)25% (May 13, 4:20 PM)29.56 "Hg (May 12, 4:20 PM)
Average57 °F68%29.86 "Hg
* Reported May 11 5:20 AM — May 26 5:20 AM, Peine, Weather by CustomWeather, © 2016

Note: Actual official high and low records may vary slightly from our data, if they occured in-between our weather recording intervals... More about our weather records

Advertising

Peine Weather History for the Previous 24 Hours

Scroll right to see more
 ConditionsComfort  
Time TempWeatherWind HumidityBarometerVisibility
5:20 AM
Thu, May 26
46 °FFog.2 mph93%30.01 "Hg3 mi
4:20 AM46 °FFog.1 mph100%30.01 "Hg0 mi
3:20 AM48 °FFog.2 mph94%30.01 "Hg3 mi
2:20 AM50 °FFog.1 mph94%30.01 "Hg4 mi
1:20 AM50 °FFog.3 mph100%30.01 "Hg6 mi
12:20 AM52 °FPassing clouds.No wind94%30.01 "HgN/A
11:20 PM
Wed, May 25
52 °FFog.1 mph94%30.01 "Hg5 mi
10:20 PM52 °FPartly sunny.No wind94%30.01 "HgN/A
9:20 PM54 °FPartly sunny.1 mph88%29.98 "HgN/A
8:20 PM55 °FPartly sunny.3 mph77%29.98 "HgN/A
7:20 PM57 °FPartly sunny.3 mph72%29.98 "HgN/A
6:20 PM57 °FPartly sunny.3 mph72%29.98 "HgN/A
5:20 PM57 °FPartly sunny.5 mph72%29.98 "HgN/A
4:20 PM55 °FPartly sunny.7 mph77%29.98 "HgN/A
3:20 PM55 °FPartly sunny.5 mph72%29.98 "HgN/A
2:20 PM55 °FPartly sunny.5 mph77%29.98 "HgN/A
1:20 PM54 °FPartly sunny.8 mph82%29.98 "HgN/A
12:20 PM54 °FPartly sunny.8 mph77%29.98 "HgN/A
11:20 AM54 °FPartly sunny.6 mph77%29.98 "HgN/A
10:20 AM54 °FPartly sunny.7 mph77%29.98 "HgN/A
9:20 AM52 °FPartly sunny.5 mph82%29.98 "HgN/A
8:20 AM52 °FPartly sunny.5 mph82%29.98 "HgN/A
7:20 AM52 °FPartly sunny.5 mph82%29.98 "HgN/A
6:20 AM50 °FPartly sunny.7 mph88%29.95 "HgN/A
Weather by CustomWeather, © 2016

See weather overviewHow to use our weather pages